CUBESX-HSE 3 (RS42S)

Last updated on Wed Sep 17 2025 00:03:09 GMT+0000 (Coordinated Universal Time)

1 57178U 23091N 25259.56114758 .00011816 00000+0 50981-3 0 9995 2 57178 97.5517 317.7115 0012003 343.4091 16.6751 15.22626269122663
UTC large
Height (km)
Speed (km/s)
/
Latitude / Longitude
Inclination (degrees)
Orbital Period (minutes)
Azimuth
Elevation
Range (km)
Doppler Factor

Next 0 passes for location: London (51.5072 / 0.1276)

Sorry there are no passes over London.